Hourly Data Report for February 09, 2006

TORONTO CITY
ONTARIO

43°40'00.000" N
79°24'00.000" W
112.50 m
6158355
71508
XTO

Download Data

Hourly Data (February 2006)
Hourly Data Report for February 9, 2006
TIME
LST
Temp Definition
°C
Dew Point Definition
°C
Rel Hum Definition
%
Precip. Amount Definition
mm

Wind Dir Definition
10's deg

Wind Spd Definition
km/h
Visibility Definition
km
Stn Press Definition
kPa
Hmdx Definition


Wind Chill Definition


Weather Definition


00:00 -7.7 -11.2 76   LegendMM LegendMM   100.54     LegendNANA
01:00 -8.4 -11.7 77   LegendMM LegendMM   100.50     LegendNANA
02:00 -8.6 -12.0 76   LegendMM LegendMM   100.48     LegendNANA
03:00 -8.2 -11.7 76   LegendMM LegendMM   100.43     LegendNANA
04:00 -7.9 -11.1 78   LegendMM LegendMM   100.35     LegendNANA
05:00 -7.7 -11.0 77   LegendMM LegendMM   100.29     LegendNANA
06:00 -6.2 -10.5 72   LegendMM LegendMM   100.22     LegendNANA
07:00 -5.5 -10.3 69   LegendMM LegendMM   100.17     LegendNANA
08:00 -5.0 -9.5 71   LegendMM LegendMM   100.16     LegendNANA
09:00 -6.3 -9.1 80   LegendMM LegendMM   100.25     LegendNANA
10:00 -6.0 -9.6 76   LegendMM LegendMM   100.27     LegendNANA
11:00 -6.1 -11.4 66   LegendMM LegendMM   100.32     LegendNANA
12:00 -6.2 -12.8 59   LegendMM LegendMM   100.33     LegendNANA
13:00 -4.6 -12.9 52   LegendMM LegendMM   100.30     LegendNANA
14:00 -4.4 -12.5 53   LegendMM LegendMM   100.27     LegendNANA
15:00 -4.5 -13.0 51   LegendMM LegendMM   100.26     LegendNANA
16:00 -4.7 -13.8 49   LegendMM LegendMM   100.27     LegendNANA
17:00 -4.8 -13.1 52   LegendMM LegendMM   100.33     LegendNANA
18:00 -5.3 -12.4 57   LegendMM LegendMM   100.38     LegendNANA
19:00 -5.6 -12.3 59   LegendMM LegendMM   100.44     LegendNANA
20:00 -5.9 -10.9 68   LegendMM LegendMM   100.44     LegendNANA
21:00 -6.1 -10.5 71   LegendMM LegendMM   100.47     LegendNANA
22:00 -6.5 -10.4 74   LegendMM LegendMM   100.49     LegendNANA
23:00 -6.5 -10.4 74   LegendMM LegendMM   100.48     LegendNANA

Notes on Data Quality.

Legend

  • E = Estimated
  • M = Missing
  • NA = Not Available*
  • [empty] = Indicates an unobserved value
Date modified: